Location: Martz Observatory
(42.0083°N, 79.0667°W)
Time: 19:08:16
(UTC-04:00)

CZ-4B R/B - Pass Details

Date: 26 May 2018
Orbit: 397 x 478 km, 97.5° (Epoch: 18 October)

Event Time Altitude Azimuth Distance (km) Brightness Sun altitude
Exits shadow 02:17:14 38° 44° (NE) 725 2.8 -25.2°
Drops below altitude 10° 02:19:52 10° 2° (N) 1,595 5.1 -25.0°
Sets 02:21:56 0° 355° (N) 2,457 6.2 -24.9°
